Погода Приморско-Ахтарск

Погода Приморско-Ахтарск : погода сейчас, прогноз погоды и архив. Всё, что Вы хотите узнать о погоде Приморско-Ахтарск!

Хотите узнать прогноз погоды Приморско-Ахтарск? Тогда Вам сюда: Погода Приморско-Ахтарск

Поиск расширенной информации на нашем сайте:

Другие новости

Новости СМИ2

Главная страница сайта

Новости сайта

03.07.2017

Напоминаем, что на нашем специализированном сайте Метеоцентр.Азия вы можете получить высокодетализированные автоматические прогнозы погоды по пунктам России, СНГ и мира в авиационном формате (включающие направление и скорость ветра, видимость, явления погоды, количество и форму облачности, нижнюю и верхнюю границу облачности).

Рекомендуем: Увеличение продаж цена: как правильно применять вилку цен для увеличения продаж.

Погода Приморско-Ахтарск - сегодня

Время (UTC), дата Ветер
(°,м/с) 
Видим.   Явления Облачность Т
(°С)
Тd
(°С)
f(%) Тe
(°С)
Pmin
(гПа)
dP
(гПа)
Po
(мм)
O2
(г/м3)
Тmin Tmax R s Состояние
почвы
12 09.12.17 200 (Ю) 10 км    ясно 
+12.5 +5.2 61 +13  1017.9  -0.6  763  293           
15 09.12.17 170 (Ю) 10 км    10/0 средняя 
[Ac und]
+8.2 +5.1 81 +8  1017.9  763  298    +12.8       
18 09.12.17 170 (Ю) 10 км    10/0 средняя 
[Ac und]
+7.6 +4.1 78 +6  1017.7  -0.2  763  298           
21 09.12.17 150 (ЮВ) 10 км    10/10 600 м 
[Sc]
+6.9 +3.6 79 +6  1018.2  0.5  763  299           
00 10.12.17 150 (ЮВ) 4000 м  дымка  3/3 600 м 
[Sc]
+5.2 +3.2 87 +6  1017.7  0.5  763  301           
03 10.12.17 130 (ЮВ) 4000 м  дымка  ясно 
+3.9 +2.5 91 +3  1016.6  -1.1  762  302  +3.8         
06 10.12.17 130 (ЮВ) 4000 м  дымка  ясно 
+3.6 +2 89 +2  1015.9  -0.7  762  303  +3.2         
09 10.12.17 130 (ЮВ) 10 км    ясно 
+10.8 +2.6 57 +10  1014.2  -1.6  760  294           
12 10.12.17 150 (ЮВ) 10 км    ясно 
+13.3 +4.9 57 +14  1012  -1.6  759  291           
15 10.12.17 130 (ЮВ) 10 км    3/0 верхняя 
[Ci fib]
+9 +4.5 73 +8  1010.3  -1.7  757  295    +13.4       
18 10.12.17 160 (Ю) 10 км    10/0 средняя, верхняя 
[Ac trans|Ci fib]
+8.8 +3.5 69 +8  1010  -0.3  757  295           
21 10.12.17 250 (З) 2{14}  4000 м  слаб. ливневой дождь  10/10 600 м кучево-дожд. 
[Cb calv]
+6.1 +4.4 89 +6  1013.2  3.2  760  299           
00 11.12.17 250 (З) 3{12}  10 км  {ливн. осадки}  10/10 600 м кучево-дожд. 
[Cb calv]
+5 +1.1 76 +4  1017.2  763  302           
03 11.12.17 260 (З) 2{10}  10 км    ясно 
+3.7 -1.1 71 +3  1020.5  3.2  765  304  +3.7       
06 11.12.17 200 (Ю) 10 км    8/8 600 м 
[Sc]
+3 -0 81 +4  1023.4  2.9  767  306  +2.6         
09 11.12.17 180 (Ю) 10 км    10/0 средняя, верхняя 
[Ac As|Ci]
+6.7 +0.8 66 +6  1023.3  0.1  767  302           
12 11.12.17 170 (Ю) 10 км    10/3 600 м средняя 
[Sc|Ac und]
+7.8 +1.5 64 +7  1023.3  0.1  767  300           
15 11.12.17 160 (Ю) 10 км    10/0 средняя 
[Ac und]
+5.6 +2.8 82 +5  1023.9  0.7  768  303    +8.2       
18 11.12.17 170 (Ю) 10 км    3/0 средняя 
[Ac trans]
+5.2 +1.9 79 +5  1023.9  768  303           
21 11.12.17 170 (Ю) 10 км    ясно 
+5.1 +2.1 81 +4  1022.8  -1.1  767  303           
00 12.12.17 160 (Ю) 10 км    10/10 600 м 
[Sc]
+6.2 +3.4 82 +5  1022.7  0.1  767  302           
03 12.12.17 170 (Ю) 10 км    ясно 
+6.2 +3.8 85 +5  1021.9  -0.8  766  301  +4         
06 12.12.17 190 (Ю) 4000 м  дымка  10/3 600 м верхняя 
[Sc|Ci fib]
+7.7 +5.9 88 +8  1022.2  0.3  766  299           
09 12.12.17 200 (Ю) 10 км    10/0 средняя, верхняя 
[Ac trans|Ci fib]
+11.8 +6.6 70 +12  1021.4  -0.8  766  295           
12 12.12.17 220 (ЮЗ) 4-10{10}  10 км    10/0 средняя, верхняя 
[Ac trans|Ci fib]
+14 +3.7 50 +14  1020.5  -0.8  765  293           
Время (UTC), дата Ветер
(°,м/с) 
Видим.   Явления Облачность Т
(°С)
Тd
(°С)
f(%) Тe
(°С)
Pmin
(гПа)
dP
(гПа)
Po
(мм)
O2
(г/м3)
Тmin Tmax R s Состояние
почвы

Для получения пояснительной информации подведите курсор к названию столбца.

ПОГОДА Приморско-Ахтарск - архив

Всё, что Вы хотите узнать о погоде Приморско-Ахтарск - удобно и подробно!

Выберите нужную дату (начиная с 1 января 2015* года) и нажмите кнопку "Найти".
Будут отображены архивные сводки погоды по пункту Приморско-Ахтарск, начиная с указанной даты.


Отображать данные в формате CSV (для использования в таблицах Excel)


Внимание! Наш архив погоды предназначен исключительно для личного некоммерческого использования в познавательных целях. Если Вам необходимы официальные справки о состоянии погоды (для производственных, юридических, коммерческих и т.п. целей), обращайтесь в органы Росгидромета.

*Примечание: данная дата относится к архиву по метеостанциям СССР (Россия, СНГ, Балтия).
Архив по метеостанциям Зарубежной Европы и Азии (кроме Китая) хранится 10 дней, по другим регионам земного шара (Китай, Африка, Америка, Австралия, Океания) - 1 день.

Приморско-Ахтарск - район местоположения метеостанции


Название, широта, долгота, высота метеостанции:
Приморско-Ахтарск 46°ш. 38.2°д. 5 м над ур. моря [Российская Федерация]

Дополнительная информация

В oтличие oт бoльшинства пoгoдных сайтoв мы публикуем пoдрoбную метеoинфoрмацию в детальнoм прoфессиoнальнoм фoрмате.

Характеристики температуры и влажнoсти вoздуха измеряются на высoте 2 м в тени вдали oт зданий и деревьев.
Скoрoсть ветра измеряется на высoте 10 м (на урoвне рoста челoвека скoрoсть ветра ниже в 1.5-2 раза). Если метеoстанция нахoдится в гoрoде или в лесу, тo скoрoсть ветра занижена на 2-4 м/с пo сравнению с oткрытым местoм. Скoрoсть ветра над акватoриями крупных рек и oзёр, а также на вершинах хoлмoв на 2-5 м/с выше, чем в oбычных услoвиях.
Атмoсфернoе давление в разных тoчках местнoсти мoжет значительнo oтличаться oт давления на метеoстанции, в зависимoсти oт услoвий рельефа (при пoдъёме на 10 м давление пoнижается примернo на 1 мм рт.ст.).